Location: Beuvrequen
(50.8014°N, 1.6652°E)
Time: 04:00:22
(UTC+00:00)

CENTAUR R/B - Pass Details

Date: 16 October 2021
Orbit: 728 x 1459 km, 63.4° (Epoch: 26 November)

Event Time Altitude Azimuth Distance (km) Brightness Sun altitude
Rises 22:34:24 0° 314° (NW) 4,060 6.4 -46.4°
Reaches altitude 10° 22:37:00 10° 316° (NW) 3,189 5.7 -46.5°
Enters shadow 22:40:26 30° 321° (NW) 2,122 4.5 -46.7°
